Temp
56 56 56 56 57 58 57 57 57 57 58 58 59 59 59 59 59 62 69 74 69 67 74 77 79 73 75 76 73 79 77 79 78 69 69 69 64 69 67 70 68 66 64 66 67 61 58 78 77 69 73 79 79 82
55 55 55 55 56 56 57 57 57 57 57 58 59 58 58 58 58 58 65 76 74 66 72 78 77 80 80 79 76 80 78 78 80 73 74 74 65 71 68 62 77 65 71 67 69 66 74 78 77 81 80 78 79 80
55 55 55 55 56 56 56 57 57 57 57 58 58 58 58 58 58 58 63 68 71 67 72 76 75 82 86 83 85 72 81 82 80 83 77 70 67 74 66 69 71 75 79 71 70 75 77 79 80 81 81 80 82 81
55 54 55 55 56 56 56 56 57 57 57 58 58 58 58 58 58 58 59 68 69 69 65 78 89 82 88 88 84 84 83 83 84 82 78 75 70 79 72 74 72 78 77 71 70 75 78 79 80 82 81 81 81 82
54 55 55 55 56 56 56 56 56 56 57 57 57 58 58 58 58 61 64 66 70 66 65 71 82 87 89 86 84 84 83 80 79 76 75 72 77 78 77 76 72 79 74 70 69 77 75 77 80 81 80 78 80 78
54 54 55 55 55 56 56 56 57 57 57 57 57 57 57 57 56 60 61 69 68 68 65 66 84 80 84 85 82 81 82 80 79 78 75 76 82 76 68 67 77 80 81 81 75 81 80 81 82 82 80 79 80 78
54 54 54 55 55 55 56 56 56 56 56 56 56 57 57 56 61 60 59 64 60 68 66 67 72 81 82 83 82 81 82 80 80 78 76 76 78 75 71 64 75 78 80 80 82 81 75 79 78 82 82 80 74 80
54 54 54 54 55 55 56 56 56 56 56 56 56 56 56 56 55 59 71 58 65 68 71 65 69 74 83 76 74 82 77 79 78 77 76 75 77 76 64 73 77 79 79 80 80 82 82 80 82 81 82 79 77 76
53 54 54 54 55 55 55 55 56 56 56 56 56 56 56 55 58 66 61 60 69 68 64 69 66 63 82 77 79 78 79 68 79 71 74 76 71 57 70 72 74 78 77 78 82 81 80 80 76 79 78 77 76 76
54 54 54 54 54 55 55 55 55 55 55 55 58 58 53 65 58 61 61 64 64 68 68 64 74 65 77 76 74 72 76 69 65 72 78 72 70 75 77 77 78 78 81 81 77 74 76 76 78 78 77 78 78 77
54 54 54 54 54 55 55 55 55 55 54 61 58 59 68 59 67 67 58 61 64 62 69 70 71 70 80 67 69 76 68 71 62 67 63 68 69 76 80 80 80 80 81 82 83 81 81 80 76 77 78 78 79 78
55 54 54 54 54 54 55 55 55 58 61 56 57 64 70 64 60 56 56 62 63 60 69 69 71 72 73 78 71 65 60 64 58 73 67 63 73 78 79 79 80 80 82 82 82 81 81 81 81 77 78 79 80 79
54 54 54 54 54 54 54 55 55 55 56 62 58 57 59 60 44 53 52 56 59 69 73 71 67 71 73 75 71 62 64 63 78 63 62 70 74 78 78 80 80 81 82 82 82 82 82 82 83 81 79 80 81 79
53 53 53 53 54 54 54 54 55 56 55 52 51 40 54 54 60 63 63 64 68 74 72 72 69 68 73 69 69 58 66 65 60 55 63 75 74 78 79 80 81 79 81 81 81 81 80 81 80 81 81 81 80 77
53 53 53 53 54 54 54 54 54 60 53 50 50 44 53 66 65 67 70 67 70 77 73 70 71 72 70 67 69 65 50 50 58 62 71 75 75 77 78 79 80 80 81 81 82 81 81 81 80 80 82 82 81 79
53 53 55 55 55 54 54 54 57 56 53 48 48 52 63 60 61 61 64 69 73 73 74 70 65 64 64 67 63 60 59 58 66 73 71 76 74 75 76 79 80 82 81 82 82 81 81 80 80 80 82 82 82 80
52 55 55 54 54 53 53 56 55 51 53 51 53 64 63 60 55 59 63 69 72 68 62 64 58 59 69 64 62 68 64 69 72 73 72 75 74 75 77 79 80 80 80 81 81 80 80 82 82 80 77 79 82 82
52 60 55 53 56 55 56 57 52 50 47 56 58 64 67 67 63 64 71 68 65 62 63 60 67 59 56 58 62 69 72 74 78 73 67 75 75 76 78 77 79 79 79 80 80 80 80 80 78 80 79 79 80 80
58 58 54 53 54 53 51 52 57 48 52 59 62 66 65 65 66 71 66 71 70 69 64 61 57 59 62 67 69 62 63 60 65 76 77 76 76 75 76 77 79 78 79 79 79 81 82 80 82 83 83 83 80 82
53 54 53 53 54 50 48 53 54 48 54 63 65 63 64 63 64 66 65 67 66 61 60 58 61 65 66 71 73 60 60 62 74 76 72 76 77 77 77 77 80 80 80 80 81 70 83 82 83 84 85 83 82 82
52 54 53 54 51 50 48 48 48 56 61 59 64 60 60 65 60 64 66 70 62 61 60 66 67 69 72 57 58 77 75 76 74 73 69 75 77 78 80 81 79 83 81 81 80 80 72 82 83 85 85 85 85 86
53 53 53 52 48 49 50 59 55 56 55 60 60 60 59 59 60 59 66 62 63 66 68 68 70 72 71 70 73 73 74 73 74 74 58 64 74 74 78 81 80 80 81 82 82 81 81 84 86 86 85 84 78 85
51 53 51 49 46 46 46 59 50 54 52 55 59 55 57 58 62 67 60 66 67 72 73 73 72 72 72 73 69 71 75 73 74 77 78 78 78 77 79 81 82 80 80 81 84 82 80 65 74 82 84 82 76 78
50 48 46 45 45 43 51 50 54 52 51 52 55 54 57 61 61 58 59 64 68 73 72 72 74 73 74 71 72 74 76 78 77 78 79 77 77 76 77 77 78 78 76 79 80 79 79 79 66 77 74 77 76 76
41 42 43 38 47 47 50 51 52 50 46 51 49 54 59 62 58 57 58 62 62 67 68 73 74 74 73 74 76 76 77 77 76 76 79 78 77 74 74 74 74 76 78 76 73 71 70 75 77 74 76 76 76 76
36 47 43 52 53 51 53 49 49 50 51 50 52 56 56 54 53 53 56 59 58 62 65 66 67 66 72 73 73 65 69 79 79 76 74 77 74 70 61 60 62 66 75 75 75 73 73 70 70 71 74 74 52 70
39 49 55 63 56 53 51 56 58 51 49 50 54 49 51 51 52 53 58 61 58 68 77 76 75 70 69 75 75 76 76 76 73 71 69 67 68 74 71 68 69 72 74 73 72 71 71 71 71 73 74 76 75 75
51 53 49 54 55 59 52 52 49 47 50 52 49 47 49 48 49 57 59 71 70 72 77 78 78 80 79 77 74 75 75 75 75 77 77 77 78 78 76 77 75 47 71 75 74 74 74 73 73 74 72 70 72 73
50 57 57 52 54 53 51 48 47 49 51 49 47 50 55 58 60 64 72 75 74 70 73 73 70 80 79 79 80 80 79 77 71 68 69 71 72 74 79 79 76 75 77 76 46 55 68 70 71 73 75 76 77 77
54 61 53 53 50 47 49 49 49 51 53 52 53 53 56 61 73 79 75 68 61 64 76 80 70 70 73 77 77 77 81 77 74 73 72 71 69 80 82 80 80 80 80 79 78 73 48 63 63 70 69 73 74 73
60 58 53 53 49 52 52 57 58 59 60 57 54 53 62 68 75 79 77 78 81 79 79 78 71 70 68 67 66 62 58 61 78 81 80 82 83 82 79 78 79 83 82 81 80 79 79 75 75 74 74 69 64 63
57 52 51 49 49 59 64 62 65 67 65 56 56 60 69 67 62 73 76 78 81 77 64 67 75 78 80 82 83 80 60 79 77 77 73 76 77 77 79 82 83 83 80 80 80 79 77 73 73 75 74 72 71 69
56 58 60 59 61 62 68 69 65 61 60 61 59 62 67 63 62 73 80 81 79 80 80 81 81 81 79 79 79 79 70 76 60 45 46 43 40 50 69 78 78 78 78 78 79 78 75 74 72 68 72 73 72 70
MSLP
1021.54 1021.54 1021.43 1021.26 1021.14 1020.81 1020.37 1020.11 1020.01 1019.91 1019.64 1019.51 1019.33 1019.20 1019.21 1019.13 1019.15 1018.65 1016.45 1016.19 1015.79 1013.64 1011.12 1010.31 1009.55 1009.02 1008.22 1007.49 1006.09 1005.02 1006.07 1005.95 1006.05 1006.15 1005.81 1005.66 1006.61 1006.15 1006.56 1006.81 1006.45 1006.47 1006.46 1005.79 1005.52 1005.68 1005.61 1006.17 1006.28 1006.44 1007.24 1006.97 1006.59 1006.09
1021.39 1021.31 1021.26 1020.97 1020.66 1020.46 1020.15 1019.83 1019.66 1019.50 1019.31 1019.14 1019.04 1019.11 1019.10 1018.99 1019.04 1018.97 1016.80 1015.85 1016.04 1015.17 1011.78 1011.01 1010.60 1009.95 1009.34 1008.97 1008.24 1006.97 1005.85 1005.60 1005.57 1005.83 1005.88 1005.83 1006.37 1006.31 1006.15 1006.01 1005.90 1006.44 1006.51 1006.23 1005.93 1006.03 1006.83 1007.07 1007.04 1007.27 1007.83 1007.87 1007.67 1007.34
1021.23 1021.10 1020.85 1020.68 1020.17 1020.03 1019.98 1019.67 1019.51 1019.12 1018.95 1018.87 1018.87 1019.03 1018.97 1018.83 1018.81 1018.79 1017.60 1016.56 1015.51 1014.03 1011.36 1009.55 1008.62 1008.53 1008.82 1008.92 1009.12 1008.27 1006.35 1006.37 1006.50 1006.19 1006.05 1007.15 1005.92 1005.96 1005.63 1005.36 1005.60 1005.87 1006.23 1006.47 1006.63 1006.23 1006.19 1006.49 1007.35 1007.74 1007.93 1008.13 1008.11 1008.33
1021.04 1020.75 1020.64 1020.44 1019.88 1019.58 1019.66 1019.44 1019.28 1018.97 1018.76 1018.74 1018.80 1018.84 1018.74 1018.63 1018.52 1018.53 1017.79 1016.74 1015.89 1014.11 1011.37 1007.22 1006.81 1007.30 1007.70 1007.77 1008.09 1008.23 1007.63 1007.59 1006.97 1006.63 1006.19 1005.96 1005.79 1005.93 1005.77 1005.88 1005.74 1005.38 1005.72 1005.97 1006.30 1006.53 1006.42 1006.60 1007.16 1007.37 1007.84 1008.41 1008.43 1008.62
1020.59 1020.49 1020.41 1019.94 1019.64 1019.40 1019.38 1019.22 1019.09 1018.78 1018.60 1018.64 1018.67 1018.59 1018.56 1018.44 1018.26 1017.89 1017.12 1016.67 1016.15 1015.09 1011.47 1008.63 1007.44 1006.67 1006.79 1007.07 1007.32 1007.58 1007.63 1007.53 1007.01 1006.61 1006.20 1005.94 1005.88 1005.80 1006.18 1006.11 1005.61 1005.53 1005.52 1005.84 1005.43 1005.81 1006.21 1006.01 1006.85 1007.52 1007.87 1008.49 1008.74 1009.26
1020.35 1020.01 1019.88 1019.55 1019.28 1019.25 1019.27 1019.14 1018.91 1018.71 1018.51 1018.50 1018.52 1018.41 1018.34 1018.23 1018.13 1017.38 1015.87 1015.23 1015.99 1015.69 1013.19 1009.19 1006.17 1006.17 1006.16 1006.38 1006.86 1006.97 1007.10 1007.27 1007.11 1006.15 1005.85 1005.91 1005.91 1006.82 1006.49 1005.64 1005.41 1005.67 1005.82 1005.78 1006.00 1006.36 1006.19 1006.48 1006.94 1007.53 1008.01 1008.58 1009.10 1009.88
1020.03 1019.73 1019.34 1019.11 1018.95 1019.10 1019.09 1018.95 1018.81 1018.64 1018.44 1018.44 1018.36 1018.13 1018.07 1018.01 1017.66 1016.79 1016.36 1015.92 1016.20 1015.75 1012.96 1009.18 1006.08 1005.57 1006.06 1006.05 1006.19 1006.40 1006.84 1006.79 1006.50 1006.09 1005.74 1005.69 1005.73 1006.67 1006.43 1005.79 1005.67 1005.63 1005.77 1005.96 1006.08 1006.29 1006.91 1006.90 1006.79 1007.67 1008.01 1008.80 1009.90 1010.05
1019.59 1019.38 1019.03 1018.77 1018.74 1018.87 1018.85 1018.74 1018.59 1018.48 1018.40 1018.31 1018.09 1017.95 1017.89 1017.88 1017.76 1016.56 1014.46 1015.98 1016.04 1014.29 1012.03 1009.16 1006.16 1005.39 1005.61 1005.17 1005.29 1005.73 1005.92 1006.27 1006.02 1005.87 1005.68 1005.52 1005.78 1005.95 1005.95 1005.65 1005.47 1005.38 1005.42 1005.57 1005.75 1006.32 1006.37 1005.71 1005.38 1007.33 1008.24 1009.30 1009.79 1010.24
1019.04 1018.95 1018.75 1018.59 1018.54 1018.60 1018.57 1018.44 1018.41 1018.35 1018.23 1018.02 1017.80 1017.70 1017.57 1017.44 1016.22 1014.61 1014.99 1015.55 1015.41 1013.87 1011.04 1008.29 1006.04 1004.75 1005.15 1004.91 1004.78 1005.29 1005.26 1005.35 1005.36 1005.31 1004.99 1005.13 1004.97 1005.19 1005.35 1005.58 1005.30 1005.08 1005.11 1005.15 1005.26 1005.94 1006.43 1006.01 1006.19 1007.45 1008.63 1009.34 1009.63 1010.22
1018.61 1018.52 1018.42 1018.35 1018.25 1018.28 1018.24 1018.21 1018.17 1018.10 1017.91 1017.69 1017.52 1016.84 1015.81 1014.46 1015.27 1015.34 1015.46 1014.32 1013.92 1012.31 1011.11 1008.55 1006.23 1005.47 1005.11 1004.34 1004.30 1005.03 1004.87 1004.86 1004.79 1004.62 1004.53 1004.27 1004.11 1004.37 1004.47 1004.70 1004.79 1004.97 1004.74 1005.21 1005.00 1005.62 1006.34 1006.47 1006.41 1007.42 1008.64 1009.21 1009.55 1010.29
1018.21 1018.07 1018.07 1017.97 1017.97 1017.97 1018.01 1017.97 1017.95 1017.83 1017.32 1016.97 1016.18 1014.93 1014.37 1015.08 1014.59 1013.11 1012.31 1011.27 1010.54 1009.33 1008.18 1007.21 1006.51 1005.07 1004.93 1004.73 1004.43 1004.53 1004.69 1004.57 1004.37 1004.37 1005.39 1003.26 1002.74 1002.41 1003.19 1003.77 1004.11 1004.17 1004.47 1004.78 1004.88 1005.54 1006.11 1006.46 1006.57 1007.31 1008.23 1008.94 1009.53 1010.39
1017.72 1017.64 1017.63 1017.67 1017.66 1017.63 1017.65 1017.76 1017.81 1017.53 1016.64 1017.04 1016.88 1015.36 1014.17 1013.48 1012.86 1011.41 1010.30 1009.25 1008.10 1007.07 1005.84 1005.70 1005.59 1005.72 1005.28 1005.12 1004.83 1005.38 1005.42 1005.11 1003.84 1004.10 1003.34 1002.61 1002.30 1002.59 1003.23 1003.46 1003.63 1003.98 1004.08 1004.35 1004.85 1005.29 1005.76 1006.26 1006.53 1007.41 1008.07 1008.77 1009.43 1010.27
1017.25 1017.28 1017.29 1017.29 1017.31 1017.41 1017.52 1017.60 1017.71 1017.57 1017.16 1016.35 1016.30 1014.73 1012.83 1011.75 1011.21 1009.60 1008.02 1007.26 1006.35 1005.58 1005.42 1005.67 1005.65 1005.61 1005.64 1005.41 1004.87 1005.60 1004.52 1004.06 1003.07 1003.25 1002.79 1002.16 1002.57 1002.80 1003.22 1003.36 1003.48 1003.81 1003.99 1004.30 1004.71 1005.15 1005.57 1006.05 1006.35 1007.00 1007.81 1008.65 1009.22 1010.11
1016.91 1016.93 1016.95 1016.95 1017.08 1017.16 1017.25 1017.45 1017.58 1017.47 1017.27 1016.13 1015.22 1013.89 1011.75 1009.79 1008.20 1007.05 1006.30 1006.10 1006.04 1005.24 1005.23 1005.35 1005.11 1005.13 1004.85 1004.92 1004.96 1005.42 1004.87 1004.43 1003.39 1002.92 1001.82 1001.29 1001.92 1002.44 1002.98 1003.29 1003.29 1003.64 1003.93 1004.21 1004.67 1005.13 1005.56 1005.91 1006.40 1006.94 1007.62 1008.48 1009.09 1009.88
1016.45 1016.51 1016.61 1016.65 1016.68 1016.81 1017.03 1017.23 1017.38 1017.13 1016.76 1015.83 1014.97 1012.73 1010.52 1008.16 1007.70 1006.83 1006.32 1006.37 1006.15 1005.49 1005.51 1005.45 1005.14 1004.69 1004.31 1004.32 1004.45 1004.87 1006.31 1005.26 1003.43 1001.91 1001.54 1001.77 1002.43 1002.62 1003.00 1003.24 1003.33 1003.43 1003.78 1004.07 1004.55 1004.98 1005.40 1005.86 1006.41 1006.85 1007.41 1008.03 1008.68 1009.35
1016.15 1016.36 1016.03 1015.97 1016.19 1016.41 1016.78 1017.10 1017.05 1016.84 1016.26 1015.58 1014.35 1011.73 1009.46 1008.65 1007.70 1007.35 1006.51 1005.71 1005.85 1005.79 1005.72 1005.85 1005.24 1004.55 1003.97 1003.95 1003.59 1003.63 1003.61 1002.74 1002.01 1001.61 1001.97 1002.78 1002.91 1003.18 1003.47 1003.44 1003.41 1003.35 1003.65 1003.91 1004.39 1004.87 1005.35 1005.77 1006.25 1006.69 1007.18 1007.54 1008.05 1008.71
1016.05 1015.52 1015.33 1015.77 1016.12 1016.31 1016.47 1016.41 1016.36 1016.03 1014.93 1013.66 1012.01 1010.50 1009.55 1008.75 1008.39 1007.80 1007.15 1006.63 1006.39 1006.49 1006.37 1006.36 1005.47 1004.59 1003.87 1003.30 1003.16 1002.93 1002.89 1002.60 1002.78 1002.98 1003.01 1002.72 1003.20 1003.62 1003.73 1003.68 1003.59 1003.54 1003.73 1003.89 1004.34 1004.82 1005.21 1005.62 1006.09 1006.53 1006.98 1007.34 1007.55 1007.99
1015.56 1014.93 1015.45 1015.80 1015.97 1016.28 1016.34 1016.05 1015.66 1015.03 1013.61 1012.11 1010.62 1008.91 1007.97 1007.88 1007.49 1007.30 1006.91 1007.03 1007.32 1007.29 1006.72 1006.58 1005.83 1005.35 1004.62 1003.36 1003.06 1003.31 1003.37 1003.09 1002.53 1003.02 1003.60 1002.78 1003.34 1003.84 1003.82 1003.69 1003.65 1003.72 1003.82 1004.01 1004.32 1004.77 1005.15 1005.41 1005.77 1006.10 1006.57 1007.15 1007.61 1007.70
1015.06 1014.87 1015.56 1015.84 1015.92 1015.82 1015.62 1015.42 1014.80 1013.69 1012.23 1010.77 1009.61 1008.69 1008.17 1007.68 1007.44 1007.05 1007.05 1006.94 1007.59 1007.73 1007.37 1007.17 1006.37 1005.09 1004.42 1004.11 1003.88 1004.97 1004.89 1004.53 1004.30 1002.76 1002.91 1003.09 1003.46 1003.75 1003.81 1003.70 1003.53 1003.66 1003.81 1004.07 1004.32 1004.49 1004.68 1005.16 1005.29 1005.48 1005.86 1006.39 1006.86 1007.07
1015.47 1015.47 1015.67 1015.89 1016.10 1015.74 1015.15 1014.42 1014.70 1013.51 1010.82 1009.09 1008.64 1008.03 1007.62 1007.37 1007.25 1006.69 1006.79 1006.65 1006.73 1007.43 1006.85 1006.25 1005.39 1004.97 1004.73 1004.33 1004.33 1004.86 1005.57 1005.31 1003.01 1002.46 1002.77 1003.00 1003.56 1003.47 1003.35 1003.30 1002.83 1002.95 1003.46 1003.84 1004.21 1004.29 1004.27 1004.73 1005.01 1005.02 1005.02 1005.40 1005.96 1006.24
1015.62 1015.50 1015.74 1015.77 1015.81 1015.86 1015.08 1014.06 1013.38 1011.93 1010.09 1008.84 1007.77 1007.79 1007.23 1006.69 1006.67 1006.03 1005.57 1005.53 1005.83 1005.91 1005.45 1005.06 1004.90 1004.91 1004.98 1005.86 1005.92 1003.82 1003.83 1004.03 1003.85 1003.63 1003.52 1002.44 1003.47 1003.43 1002.99 1002.83 1002.92 1002.40 1002.66 1002.94 1003.39 1003.71 1003.92 1004.00 1004.28 1004.45 1004.48 1004.85 1005.25 1005.49
1015.18 1015.47 1015.48 1015.79 1015.44 1015.15 1014.40 1012.81 1012.11 1011.10 1010.39 1008.48 1007.73 1007.33 1006.67 1005.94 1005.50 1005.59 1005.28 1005.10 1004.49 1004.09 1004.23 1004.17 1003.91 1003.76 1004.02 1004.71 1004.42 1004.67 1004.28 1004.48 1004.29 1004.13 1004.17 1004.12 1003.68 1003.16 1002.73 1002.63 1002.75 1002.35 1002.35 1002.43 1002.92 1003.21 1003.75 1003.64 1003.67 1003.97 1004.31 1004.49 1005.07 1005.22
1015.33 1015.33 1015.25 1015.18 1014.89 1014.15 1013.08 1012.07 1011.58 1010.63 1009.52 1008.26 1007.41 1006.61 1005.88 1005.68 1005.14 1004.74 1004.33 1003.53 1003.12 1002.95 1002.83 1002.95 1003.16 1003.59 1003.61 1003.67 1003.86 1003.82 1003.81 1004.10 1003.75 1003.42 1003.35 1003.49 1003.46 1003.42 1003.39 1003.36 1003.31 1003.04 1002.73 1002.72 1002.73 1003.08 1003.31 1004.02 1003.97 1004.01 1004.00 1004.82 1005.43 1005.57
1015.34 1015.00 1014.45 1014.10 1013.91 1012.93 1012.32 1011.21 1010.72 1010.11 1009.65 1008.71 1007.24 1006.11 1005.39 1005.15 1005.20 1004.58 1003.29 1002.53 1002.01 1001.88 1001.85 1001.96 1002.09 1002.30 1002.65 1003.23 1003.21 1003.00 1003.12 1003.21 1003.11 1003.04 1003.01 1003.37 1003.12 1003.13 1003.63 1003.91 1003.79 1004.02 1004.24 1003.99 1003.86 1004.11 1004.24 1004.32 1004.90 1005.06 1005.39 1005.13 1005.40 1005.64
1014.98 1014.46 1014.05 1013.03 1012.63 1011.95 1010.52 1009.80 1009.35 1009.31 1009.07 1008.29 1007.52 1005.80 1004.83 1004.85 1004.38 1003.71 1002.92 1002.45 1002.20 1001.63 1001.65 1001.57 1001.78 1001.81 1001.69 1001.68 1001.86 1002.02 1002.33 1002.70 1002.53 1002.47 1002.52 1003.32 1003.50 1003.79 1004.11 1004.43 1004.58 1004.68 1004.79 1004.80 1004.93 1004.94 1004.93 1004.95 1004.71 1005.27 1005.08 1005.04 1005.16 1005.27
1013.81 1012.83 1012.32 1010.50 1010.16 1010.09 1009.27 1008.69 1008.68 1008.52 1008.22 1007.67 1006.98 1006.20 1005.69 1005.12 1004.34 1003.42 1003.33 1003.30 1003.08 1002.71 1002.29 1001.98 1001.48 1001.43 1001.36 1001.64 1001.80 1002.28 1002.63 1002.52 1002.46 1002.76 1003.70 1003.91 1003.85 1003.81 1004.61 1005.11 1005.17 1005.13 1005.19 1005.08 1004.84 1004.89 1004.95 1005.11 1005.26 1005.11 1004.69 1004.58 1005.59 1005.45
1012.52 1010.85 1010.01 1009.49 1009.49 1009.56 1009.24 1008.61 1008.31 1008.59 1008.17 1007.42 1006.89 1006.82 1005.82 1004.52 1003.83 1004.16 1003.84 1003.55 1003.03 1002.61 1001.79 1001.46 1001.09 1000.97 1001.28 1001.57 1002.32 1002.57 1003.09 1003.32 1003.62 1004.09 1004.53 1004.46 1004.62 1004.07 1004.21 1004.48 1004.50 1004.82 1005.15 1005.21 1005.30 1005.31 1005.18 1004.99 1004.78 1004.63 1004.32 1004.17 1004.16 1004.34
1011.01 1010.09 1009.25 1008.93 1008.72 1008.44 1008.47 1008.54 1008.65 1008.56 1008.33 1008.21 1007.99 1006.72 1005.43 1004.87 1004.52 1004.06 1003.47 1002.77 1003.06 1002.87 1002.05 1001.87 1001.89 1001.58 1001.62 1002.29 1003.08 1003.27 1003.43 1003.75 1003.94 1003.93 1004.01 1004.07 1004.31 1004.30 1004.53 1004.61 1004.89 1005.54 1005.33 1005.16 1005.10 1005.01 1005.01 1004.95 1004.77 1004.47 1004.58 1004.59 1004.49 1004.51
1010.02 1009.13 1008.75 1008.43 1008.33 1008.39 1008.48 1008.74 1008.80 1008.80 1008.59 1008.29 1007.64 1006.58 1005.51 1004.88 1004.15 1003.16 1002.16 1002.14 1002.53 1002.55 1002.49 1002.50 1002.77 1001.99 1002.15 1002.43 1002.60 1002.73 1003.05 1003.31 1003.63 1003.69 1003.40 1003.22 1003.47 1003.75 1003.77 1003.88 1004.48 1004.71 1004.47 1004.49 1005.52 1005.57 1005.31 1005.61 1005.38 1005.01 1004.28 1003.93 1003.76 1003.79
1008.62 1008.09 1007.98 1007.82 1007.59 1007.69 1007.95 1008.31 1007.84 1007.67 1007.78 1007.67 1007.47 1006.68 1005.81 1004.67 1003.28 1002.56 1001.96 1001.98 1002.67 1002.51 1002.07 1001.98 1002.89 1002.43 1002.14 1002.05 1002.26 1002.70 1002.71 1003.25 1003.37 1003.07 1002.82 1002.85 1003.07 1002.59 1002.57 1002.85 1003.09 1003.19 1003.31 1003.68 1004.04 1004.68 1005.57 1005.49 1005.26 1005.04 1004.94 1004.33 1004.04 1004.45
1007.81 1007.72 1007.55 1007.43 1007.27 1006.79 1006.67 1006.70 1006.70 1006.43 1006.05 1005.93 1006.24 1006.05 1004.54 1003.51 1002.95 1002.67 1002.56 1002.13 1001.32 1001.37 1001.52 1001.70 1002.81 1003.21 1003.49 1003.40 1003.22 1003.84 1004.72 1004.10 1003.12 1003.02 1003.45 1003.13 1002.68 1002.41 1002.41 1002.40 1002.37 1002.25 1002.37 1002.73 1003.13 1003.38 1003.59 1003.92 1003.73 1003.63 1003.53 1003.85 1004.67 1005.01
1007.25 1007.22 1006.95 1006.31 1005.99 1005.20 1004.89 1004.33 1003.88 1003.59 1003.76 1004.80 1004.96 1004.83 1003.57 1003.17 1003.05 1002.65 1002.87 1002.38 1001.37 1001.64 1002.62 1003.29 1002.29 1002.35 1002.56 1002.46 1002.69 1003.39 1003.76 1003.83 1004.24 1004.45 1004.86 1004.59 1004.29 1004.13 1003.71 1003.01 1002.33 1001.81 1001.77 1001.98 1002.08 1002.30 1002.56 1003.21 1003.22 1002.81 1002.77 1003.17 1003.61 1003.97
1006.27 1005.76 1005.17 1004.88 1003.87 1003.15 1002.42 1002.36 1002.33 1002.69 1003.47 1003.85 1004.14 1003.91 1003.19 1002.94 1002.77 1002.93 1003.03 1002.83 1002.38 1002.03 1002.13 1002.42 1002.82 1003.32 1003.59 1003.57 1003.73 1003.85 1003.98 1004.83 1005.56 1005.77 1005.86 1005.93 1005.91 1005.65 1004.84 1003.86 1003.35 1002.87 1002.38 1002.16 1001.85 1001.70 1002.07 1002.66 1002.83 1002.93 1002.62 1002.71 1003.05 1003.76
Wind_Speed
6 8 9 9 10 11 11 11 11 12 11 11 10 9 3 3 4 5 6 3 7 7 15 17 15 9 8 7 11 7 10 11 9 10 10 6 7 4 5 10 11 8 10 10 9 11 14 6 4 4 7 7 12 12
7 8 10 10 11 11 11 11 11 11 10 9 9 5 5 4 5 5 6 3 4 8 10 15 14 16 13 13 10 3 10 6 7 7 10 5 5 7 9 9 10 9 10 11 11 6 5 3 5 1 6 8 7 9
8 9 10 11 10 9 10 10 10 8 7 6 5 6 6 5 5 8 5 7 6 9 13 15 13 18 19 17 11 8 5 5 5 5 2 5 6 5 10 7 10 11 9 9 11 12 11 7 2 5 5 7 6 3
10 10 11 12 10 8 10 11 10 8 7 7 7 7 6 6 6 7 5 5 7 6 7 2 5 7 9 14 16 15 13 5 8 4 6 6 7 5 6 10 10 9 5 7 11 14 13 7 10 8 7 6 7 6
10 10 12 11 9 8 10 8 8 7 6 7 7 6 7 7 6 9 8 8 9 9 7 10 16 15 15 12 15 15 13 9 6 6 6 8 9 3 6 10 10 10 11 11 11 8 8 8 8 5 6 7 7 7
12 10 9 9 8 7 8 8 7 7 7 6 6 6 6 6 6 5 5 7 7 7 7 6 0 4 7 10 15 13 11 8 10 8 6 3 3 2 8 11 9 10 12 14 9 12 7 3 3 6 7 8 8 8
12 11 8 9 7 7 7 8 8 7 6 6 7 7 6 6 6 6 6 6 1 8 6 6 6 10 7 8 11 9 11 10 8 9 10 7 6 6 7 12 13 11 9 10 9 6 6 7 8 9 9 9 6 8
11 10 9 9 7 8 8 7 7 8 8 7 6 6 6 6 8 8 8 11 7 7 5 6 6 4 12 7 10 8 9 9 9 10 7 7 4 6 7 10 8 9 10 13 11 9 14 12 14 12 10 10 11 10
10 10 10 10 7 7 8 7 6 8 8 7 6 6 3 4 5 3 12 11 7 7 6 6 9 2 6 10 9 8 7 8 7 10 11 10 9 4 9 12 13 11 8 11 12 12 12 13 9 11 12 13 11 10
9 10 9 10 7 7 7 6 7 8 8 7 4 4 5 4 15 10 6 7 8 7 6 8 9 5 6 8 5 7 8 7 7 9 9 10 11 15 17 18 16 15 10 9 13 10 11 14 13 15 14 12 10 11
9 10 10 8 7 7 6 6 7 10 8 4 4 2 6 6 5 6 4 6 7 6 6 8 13 7 4 6 8 7 3 9 9 8 4 9 12 8 9 6 6 10 13 12 8 8 11 13 8 12 14 12 10 12
10 9 9 8 8 6 5 5 7 5 3 5 5 6 4 5 5 6 6 5 6 6 5 8 7 10 4 3 4 7 7 8 6 5 5 9 7 6 5 5 4 7 13 11 11 9 10 14 12 11 11 11 12 12
8 9 9 8 7 7 6 5 5 7 9 5 4 5 5 5 3 7 9 5 6 6 3 5 5 5 6 5 3 9 6 8 0 4 5 7 8 7 4 4 3 5 9 12 12 9 10 13 13 15 13 11 12 12
10 10 9 7 7 7 6 6 5 5 3 3 3 5 6 6 7 8 8 2 4 2 2 4 5 6 6 8 4 1 6 6 5 6 13 7 12 7 5 5 5 7 9 11 10 9 12 13 13 13 14 12 12 13
10 8 6 8 9 8 7 5 4 4 2 3 4 5 7 9 5 8 2 3 7 4 3 4 7 6 9 5 7 7 3 4 7 14 3 9 8 5 6 6 5 7 10 10 11 11 12 14 13 13 13 14 14 13
6 4 7 6 7 9 9 6 5 2 2 3 5 8 8 9 7 9 5 5 3 4 5 4 6 5 7 6 9 8 6 4 3 5 10 7 8 8 5 3 4 6 9 11 11 11 13 13 13 13 13 13 14 14
7 4 9 10 7 6 10 3 4 5 5 5 6 10 12 8 7 8 3 6 2 3 5 5 4 5 5 9 14 7 11 9 3 3 5 11 7 5 2 0 2 7 9 10 11 11 12 13 14 13 12 12 13 13
4 6 8 12 10 7 3 4 2 3 6 7 10 11 8 7 7 6 5 4 1 3 4 4 3 5 5 7 8 5 4 6 6 2 8 7 4 1 4 3 2 6 9 10 11 11 12 13 13 10 12 12 12 10
2 5 10 12 4 2 4 6 5 5 8 9 8 10 8 7 7 8 3 5 2 4 3 3 6 8 10 7 4 4 6 6 13 7 2 1 2 5 5 6 6 7 11 11 11 10 10 13 12 10 11 11 11 11
2 3 6 8 6 2 3 3 3 4 6 5 7 9 7 7 8 6 6 8 8 4 6 6 7 7 7 7 6 9 7 17 8 3 0 5 5 5 6 6 7 9 10 11 11 10 10 10 10 10 10 10 11 11
4 3 3 5 2 2 3 2 5 5 6 6 5 3 7 6 7 10 10 8 8 10 11 9 9 9 10 7 12 6 3 2 5 4 4 6 5 3 3 3 7 7 10 10 10 11 9 10 10 10 10 10 11 10
2 10 2 3 3 4 5 6 5 4 4 7 8 8 8 7 7 8 7 9 12 11 11 12 12 10 10 12 10 7 3 2 3 3 5 5 7 3 5 3 4 5 7 9 9 9 9 8 9 10 10 10 9 8
3 3 2 3 4 3 5 4 5 3 5 5 4 4 4 3 3 3 5 9 10 11 10 12 13 14 12 10 5 8 6 6 7 7 5 5 6 3 4 1 3 4 3 3 2 4 5 3 4 6 5 4 4 7
1 3 4 5 6 4 4 4 4 4 3 4 8 11 6 4 3 5 8 9 7 6 8 8 7 8 9 12 11 11 10 9 9 9 6 5 8 4 3 4 3 3 5 7 4 4 6 5 3 5 7 8 9 10
3 3 3 4 3 6 7 6 6 4 5 6 5 6 2 4 4 4 6 1 4 1 3 5 5 6 7 7 9 10 11 8 8 7 2 3 3 3 2 2 4 4 4 4 3 4 4 7 5 8 11 10 12 14
3 5 6 6 6 6 4 4 1 4 4 3 4 4 3 3 5 3 2 3 4 2 2 6 4 3 4 3 3 5 3 3 3 4 4 1 2 3 6 8 7 5 3 4 5 6 7 7 9 14 13 13 3 8
4 7 6 5 2 2 4 4 3 3 4 4 1 3 4 5 1 3 3 1 4 2 2 2 3 3 5 6 6 6 5 4 5 4 4 4 5 4 6 1 2 3 1 2 4 6 8 8 10 10 11 11 8 6
4 4 7 4 7 5 8 5 3 3 3 2 2 4 3 3 0 3 3 2 5 2 3 5 5 4 5 7 6 6 7 6 6 5 5 6 4 3 1 3 4 2 3 2 4 5 6 7 9 8 8 8 9 7
5 4 5 8 9 5 4 3 3 3 2 2 3 4 4 2 3 3 3 3 8 4 4 5 2 5 7 7 5 5 5 5 7 7 9 8 9 7 7 5 8 7 8 7 5 2 5 7 8 9 9 8 8 5
7 7 5 7 4 3 4 5 4 5 6 5 3 3 4 3 3 3 2 4 6 6 3 5 10 7 5 4 8 8 7 6 8 7 3 1 4 5 4 5 5 5 4 3 5 9 4 5 6 6 7 9 1 2
2 3 4 4 4 2 6 9 9 11 11 8 8 6 4 4 4 3 5 4 2 3 4 3 11 5 9 10 3 10 4 9 5 9 9 9 8 7 7 3 4 5 6 6 6 6 3 6 6 5 6 7 10 8
5 5 5 3 4 9 11 12 9 6 7 4 5 7 3 4 4 4 5 6 0 9 16 7 1 9 6 5 8 8 7 10 8 9 11 9 10 11 11 11 11 11 8 9 9 9 7 7 7 7 6 6 6 9
7 9 8 6 7 6 4 2 3 4 5 6 2 4 3 1 8 4 4 7 8 7 7 8 8 7 6 8 7 4 5 8 9 9 9 6 5 8 10 10 11 12 14 12 13 10 8 10 10 10 9 7 10 10
Wind_Direction
314 313 308 305 292 290 298 300 298 297 295 296 295 289 267 282 295 280 306 237 266 282 286 292 289 273 277 253 273 156 166 212 194 237 260 244 294 241 208 279 281 249 254 253 237 260 266 54 152 268 35 322 334 314
313 304 304 296 305 309 309 305 297 288 291 294 295 277 271 268 268 264 274 159 257 256 294 321 286 290 278 281 317 276 244 228 214 213 240 231 188 241 234 261 240 235 259 288 305 9 102 15 341 340 318 303 306 332
296 300 297 289 301 311 310 309 308 311 304 304 299 285 270 262 249 235 300 320 260 257 265 239 242 234 226 232 241 279 234 336 262 348 166 231 281 302 282 282 270 242 221 257 279 268 277 238 211 276 272 274 279 200
296 296 291 289 301 310 307 304 300 302 306 303 291 281 277 267 246 246 247 272 268 283 277 276 123 214 211 217 216 233 264 293 290 256 261 266 275 269 276 292 292 295 347 228 251 255 271 218 236 256 204 241 252 162
283 287 285 291 297 308 313 310 301 303 302 288 282 281 278 272 262 260 254 242 262 283 318 323 322 269 211 217 209 218 230 236 231 210 236 248 267 259 273 268 271 265 244 247 266 282 334 255 156 193 218 209 207 172
284 273 285 301 288 294 308 312 315 320 313 298 288 281 273 269 264 269 247 181 217 244 275 276 352 271 235 202 211 217 217 206 246 240 245 255 164 339 281 275 271 267 271 276 249 271 269 236 309 162 197 192 175 169
284 282 290 311 284 277 289 304 311 315 319 303 287 283 275 260 252 255 345 14 93 226 249 252 233 179 221 208 203 201 202 216 230 238 247 252 256 187 261 271 283 282 253 270 243 216 234 247 215 194 180 162 163 164
279 292 295 304 265 268 282 286 298 304 297 298 303 296 284 274 275 271 227 185 223 242 254 265 259 188 180 202 194 194 196 212 215 246 247 240 190 226 265 271 282 272 259 246 218 214 250 230 173 171 157 156 184 166
277 284 288 294 256 258 266 280 295 298 295 296 307 295 257 221 225 91 113 141 224 295 294 229 261 54 161 231 196 179 223 200 215 225 237 252 252 218 245 270 290 280 242 248 213 205 236 270 140 165 172 180 176 167
270 281 278 281 253 254 256 275 289 294 295 300 262 227 217 133 115 141 185 185 196 209 224 262 281 234 225 202 189 192 217 216 220 230 240 241 248 255 247 250 251 256 247 220 225 189 215 237 190 174 185 187 182 169
265 273 267 264 251 250 247 272 286 306 255 213 225 342 80 146 215 222 231 215 187 221 211 222 245 259 203 243 204 220 228 209 231 209 270 230 242 239 196 245 264 238 232 208 220 193 204 221 197 176 184 183 176 166
262 270 264 245 241 237 235 253 280 273 6 358 308 273 251 210 237 240 190 222 215 224 200 205 200 226 244 271 227 306 124 287 160 268 215 242 261 125 174 252 232 219 227 203 216 205 192 209 190 173 184 178 170 170
263 270 257 236 231 227 228 240 260 297 290 243 228 256 213 217 231 231 195 201 214 189 180 183 194 215 226 247 255 191 232 199 96 184 220 225 127 139 191 243 198 192 204 205 203 205 196 202 189 179 174 181 169 164
260 259 236 229 227 222 218 226 243 265 269 244 220 268 230 209 230 216 245 307 316 189 158 184 222 205 192 195 200 223 313 352 240 230 236 225 139 144 160 195 207 181 187 189 184 197 188 184 183 182 172 177 179 175
255 227 227 237 225 217 209 206 221 221 269 231 243 233 252 265 319 296 191 184 217 258 232 199 250 216 199 197 211 165 142 255 260 217 214 86 112 128 162 177 194 186 191 192 183 190 191 178 188 186 185 180 190 179
208 201 215 195 190 204 194 194 190 218 229 245 232 263 241 271 279 319 310 254 187 231 229 237 274 201 217 212 223 213 212 246 19 312 107 129 102 107 128 147 219 192 188 198 188 192 191 189 191 194 194 203 191 194
182 260 144 168 162 165 189 218 188 217 239 236 230 232 261 255 246 266 336 275 308 325 206 244 234 232 230 217 234 222 239 263 121 12 291 96 104 121 135 162 330 216 192 197 189 194 197 193 194 196 202 211 222 203
240 160 152 154 163 140 185 219 251 260 250 246 250 258 235 266 273 254 271 247 122 255 290 238 341 232 272 239 217 236 272 307 257 149 318 110 109 276 265 268 257 216 201 203 190 194 196 198 198 203 200 192 212 216
327 142 153 169 177 244 199 194 239 251 234 254 252 259 263 271 264 261 257 240 174 269 291 237 241 240 239 257 293 56 345 351 309 164 66 338 197 264 268 269 240 209 202 201 196 200 194 203 207 203 192 197 212 213
330 138 171 192 222 238 256 186 189 258 264 249 247 264 269 258 279 274 245 248 223 199 224 225 240 246 274 279 284 141 184 222 275 348 242 103 354 271 226 266 232 190 197 192 199 219 199 192 207 219 219 206 199 214
170 153 153 183 177 247 286 237 225 273 283 269 274 315 277 237 250 255 243 232 211 217 237 232 252 247 250 77 297 282 91 340 331 354 332 13 10 345 321 216 226 215 195 186 197 194 224 196 199 211 206 211 204 218
131 164 175 158 227 216 251 219 248 298 261 260 261 229 247 259 242 230 242 234 237 235 231 241 241 240 221 214 236 217 283 305 248 264 223 236 259 335 3 46 208 223 216 196 198 198 201 225 207 198 212 209 210 231
145 178 188 173 239 230 256 211 243 263 270 286 289 280 237 239 271 257 228 229 231 232 225 231 234 242 263 271 257 238 216 243 274 270 256 259 265 257 276 89 335 327 270 231 244 235 213 213 159 256 205 210 233 236
129 212 212 198 205 240 239 227 241 225 243 272 268 251 229 191 235 247 245 241 239 221 224 222 233 230 218 222 246 242 232 232 248 245 241 241 258 217 200 279 290 14 348 344 325 271 265 259 312 228 252 231 219 242
203 210 217 236 209 252 218 206 200 205 225 234 273 271 239 158 239 249 248 333 332 1 344 189 220 225 234 222 215 222 218 233 250 249 159 216 267 240 224 280 308 276 329 284 257 254 286 305 243 243 244 234 239 226
230 205 217 221 182 226 226 260 242 280 275 241 271 322 311 241 239 234 64 34 23 337 161 252 227 209 178 58 79 69 74 239 167 198 117 208 193 144 178 190 214 239 257 270 259 241 228 210 257 259 248 246 180 269
232 228 215 232 232 267 272 276 271 238 250 272 289 215 251 245 69 45 339 346 224 203 65 320 340 140 146 118 97 105 118 110 86 105 114 67 314 0 1 32 218 89 156 268 268 271 271 267 265 258 259 259 271 221
264 304 252 249 253 257 268 288 276 257 280 338 273 242 290 21 175 233 229 175 78 34 19 72 46 59 90 114 127 154 131 129 131 140 137 152 167 179 172 149 109 113 289 317 307 283 250 255 268 256 227 246 263 260
232 229 262 250 245 215 219 220 233 238 251 284 293 291 348 321 295 303 49 108 128 121 118 131 203 165 143 148 131 131 123 132 140 163 194 179 182 185 188 198 164 201 218 178 146 331 333 320 329 323 297 278 268 225
246 230 227 269 249 227 183 204 223 215 212 211 247 286 244 246 250 303 306 72 153 193 164 96 28 351 40 129 144 157 182 180 198 208 214 242 173 205 153 181 209 227 200 230 227 158 171 232 205 239 235 256 305 302
225 242 241 240 267 275 237 228 233 241 244 218 196 247 238 156 126 45 47 328 324 138 130 84 163 154 177 204 211 80 15 290 18 46 12 337 329 351 354 310 246 241 234 230 258 269 217 230 246 244 233 174 168 198
209 203 224 213 254 251 236 237 226 208 142 140 171 198 215 149 161 99 7 306 171 106 123 187 173 125 155 117 69 108 37 53 39 34 21 6 359 354 329 317 312 305 277 252 240 246 227 215 280 259 241 205 212 199
220 229 234 261 259 257 215 228 230 104 95 94 82 210 175 139 82 91 58 18 14 42 59 68 76 79 69 49 39 79 116 88 101 110 104 77 26 346 317 328 329 320 314 304 296 281 228 249 267 279 250 220 195 202